Location: Dompnac
(44.5644°N, 4.1026°E)
Time: 10:27:04
(UTC+00:00)

Cosmos 2026 Rocket - Visible Passes

Search period start: 17 January 2021 00:00
Search period end: 27 January 2021 00:00
Orbit: 939 x 1001 km, 82.9° (Epoch: 16 January)

Date Brightness Start Highest point End Pass type
(mag) Time Alt. Az. Time Alt. Az. Time Alt. Az.
17 Jan 6.5 04:52:32 10° NNE 04:56:43 18° ENE 05:00:55 10° ESE visible
17 Jan 4.1 06:36:26 10° N 06:42:45 80° W 06:49:07 10° S visible
17 Jan 4.9 18:22:58 10° SSE 18:26:18 26° ESE 18:26:18 26° ESE visible
17 Jan 5.4 20:07:37 10° SW 20:11:00 30° WSW 20:11:00 30° WSW visible
18 Jan 5.9 05:15:29 10° N 05:20:58 30° ENE 05:26:27 10° SE visible
18 Jan 3.9 18:45:54 10° SSE 18:51:47 55° E 18:52:06 54° E visible
18 Jan 5.9 20:32:34 10° WSW 20:36:49 24° WNW 20:36:49 24° WNW visible
19 Jan 5.0 05:38:54 10° N 05:45:02 50° ENE 05:51:11 10° SSE visible
19 Jan 5.4 17:28:06 10° ESE 17:31:11 14° ENE 17:33:52 11° NE visible
19 Jan 3.8 19:09:24 10° S 19:15:30 87° W 19:18:42 31° N visible
19 Jan 6.5 20:58:29 10° W 21:01:46 15° WNW 21:03:32 13° NW visible
20 Jan 6.7 04:19:18 10° NNE 04:22:38 14° ENE 04:25:58 10° E visible
20 Jan 4.2 06:02:33 10° N 06:08:56 83° E 06:15:19 10° S visible
20 Jan 4.8 17:49:41 10° SE 17:54:32 25° E 17:59:25 10° NNE visible
20 Jan 4.6 19:33:28 10° SSW 19:39:23 52° WNW 19:45:25 10° N visible
21 Jan 6.2 04:41:55 10° NNE 04:46:58 24° ENE 04:52:01 10° ESE visible
21 Jan 4.1 06:26:28 10° NNW 06:32:41 60° W 06:38:54 10° S visible
21 Jan 4.2 18:12:19 10° SSE 18:18:01 43° E 18:23:48 10° NNE visible
21 Jan 5.6 19:58:06 10° SW 20:03:25 31° WNW 20:08:51 10° N visible
22 Jan 5.3 05:05:10 10° N 05:11:07 40° ENE 05:17:02 10° SE visible
22 Jan 3.8 18:35:35 10° S 18:41:39 75° E 18:47:51 10° NNE visible
22 Jan 6.3 20:23:31 10° WSW 20:27:39 18° WNW 20:31:51 10° NNW visible
23 Jan 6.9 03:46:35 10° NE 03:48:31 11° ENE 03:50:27 10° ENE visible
23 Jan 4.4 05:28:44 10° N 05:35:05 67° E 05:41:25 10° SSE visible
23 Jan 5.1 17:16:34 10° SE 17:20:51 20° E 17:25:10 10° NE visible
23 Jan 4.3 18:59:24 10° SSW 19:05:28 65° W 19:11:40 10° N visible
23 Jan 6.8 20:50:52 10° WNW 20:52:05 11° WNW 20:53:19 10° NW visible
24 Jan 6.4 04:08:28 10° NNE 04:12:56 20° ENE 04:17:24 10° ESE visible
24 Jan 4.0 05:52:32 10° NNW 05:58:53 75° W 06:05:15 10° S visible
24 Jan 4.5 17:38:51 10° SSE 17:44:16 35° E 17:49:47 10° NNE visible
24 Jan 5.3 19:23:47 10° SW 19:29:26 38° WNW 19:35:13 10° N visible
25 Jan 5.7 04:31:31 10° N 04:37:09 32° ENE 04:42:47 10° SE visible
25 Jan 4.4 06:16:35 10° NNW 06:22:33 44° W 06:28:31 10° SSW visible
25 Jan 4.0 18:01:52 10° S 18:07:51 60° E 18:13:57 10° NNE visible
25 Jan 6.1 19:48:49 10° WSW 19:53:35 23° WNW 19:58:27 10° NNW visible
26 Jan 4.8 04:54:57 10° N 05:01:12 53° ENE 05:07:24 10° SSE visible
26 Jan 4.0 18:25:27 10° S 18:31:35 82° W 18:37:52 10° N visible
26 Jan 6.7 20:14:55 10° W 20:17:56 14° WNW 20:20:58 10° NNW visible
